Location: Beugnon
(47.6222°N, 3.7850°E)
Time: 07:17:49
(UTC+00:00)

Resurs 01 Rocket - Pass Details

Date: 09 April 2020
Orbit: 635 x 644 km, 98.0° (Epoch: 03 June)

Event Time Altitude Azimuth Distance (km) Brightness Sun altitude
Exits shadow 20:55:19 19° 213° (SSW) 1,496 3.4 -22.8°
Maximum altitude 20:57:44 33° 264° (W) 1,080 3.1 -23.1°
Drops below altitude 10° 21:01:44 10° 328° (NNW) 2,036 5.2 -23.6°
Sets 21:04:09 0° 339° (NNW) 2,952 6.1 -23.9°
